• Join FlightAware (Why Join?)
  • Login
  • US Flag 
12:10AM EDT


 

Airport Tracker/Info


-or-


 

Live Flight TrackerFlight Track Log ✈ XOJ793 ✈ 12-Jul-2014 ✈ KVNY - KEWB

Flight Track Log - Related Links

Times and Time Zones

All times are in EDT time to prevent confusion due to time zone crossing. See the XOJ793 flight status page for this flight to view local times or setup timezone preferences in your user account.

Time Position Orientation Groundspeed Altitude Reporting Facility
EDT Latitude Longitude Course Direction KTS MPH feet Rate Location/Type
10:14AM 34.1667 -118.4747 93° East 217 250 2,000  Level Los Angeles Center
10:15AM 34.1644 -118.4147 93° East 219 252 4,500 2,220 Climbing Los Angeles Center
10:16AM 34.2361 -118.4444 341° North 236 272 6,700 1,980 Climbing Los Angeles Center
10:17AM 34.3089 -118.4664 346° North 280 322 8,600 1,980 Climbing Los Angeles Center
10:18AM 34.3744 -118.4111 35° Northeast 282 325 10,800 1,800 Climbing Los Angeles Center
10:19AM 34.4425 -118.3486 37° Northeast 307 353 12,300 1,380 Climbing Los Angeles Center
10:20AM 34.5042 -118.2675 47° Northeast 325 374 13,700 1,140 Climbing Los Angeles Center
10:21AM 34.5619 -118.1750 53° Northeast 342 394 14,700 1,080 Climbing Los Angeles Center
10:22AM 34.6253 -118.0647 55° Northeast 358 412 16,000 1,140 Climbing Los Angeles Center
10:23AM 34.6408 -117.9439 81° East 361 415 17,100 960 Climbing Los Angeles Center
10:24AM 34.6544 -117.8189 82° East 372 428 18,000 1,020 Climbing Los Angeles Center
10:25AM 34.6689 -117.6917 82° East 378 435 19,200 1,140 Climbing Los Angeles Center
10:26AM 34.6817 -117.5625 83° East 384 442 20,400 1,140 Climbing Los Angeles Center
10:27AM 34.6992 -117.4036 82° East 398 458 21,600 1,140 Climbing Los Angeles Center
10:28AM 34.7136 -117.2683 83° East 405 466 22,800 1,140 Climbing Los Angeles Center
10:29AM 34.7281 -117.1300 83° East 412 474 24,000 1,200 Climbing Los Angeles Center
10:30AM 34.7419 -116.9903 83° East 417 480 25,300 1,260 Climbing Los Angeles Center
10:31AM 34.7561 -116.8500 83° East 418 481 26,600 1,260 Climbing Los Angeles Center
10:32AM 34.7783 -116.6786 81° East 425 489 27,900 1,200 Climbing Los Angeles Center
10:33AM 34.8172 -116.5394 71° East 431 496 29,100 1,020 Climbing Los Angeles Center
10:34AM 34.8556 -116.3969 72° East 443 510 30,100 960 Climbing Los Angeles Center
10:35AM 34.8953 -116.2517 72° East 450 518 31,100 780 Climbing Los Angeles Center
10:36AM 34.9331 -116.1039 73° East 453 521 31,800 720 Climbing Los Angeles Center
10:37AM 34.9733 -115.9514 72° East 467 537 32,700 960 Climbing Los Angeles Center
10:38AM 35.0236 -115.7622 72° East 483 556 33,800 1,020 Climbing Los Angeles Center
10:39AM 35.0644 -115.6042 72° East 488 562 34,900 1,200 Climbing Los Angeles Center
10:40AM 35.1069 -115.4472 72° East 488 562 36,400 1,380 Climbing Los Angeles Center
10:41AM 35.1458 -115.2925 73° East 485 558 37,800 1,320 Climbing Los Angeles Center
10:42AM 35.1850 -115.1431 72° East 478 550 39,200 1,200 Climbing Los Angeles Center
10:43AM 35.2319 -114.9597 73° East 474 545 40,400 1,020 Climbing Los Angeles Center
10:45AM 35.2714 -114.8056 73° East 474 545 41,400 720 Climbing Los Angeles Center
10:46AM 35.3108 -114.6522 72° East 474 545 42,000 480 Climbing Los Angeles Center
10:47AM 35.3472 -114.4983 74° East 471 542 42,500 480 Climbing Los Angeles Center
10:48AM 35.3864 -114.3417 73° East 477 549 43,000 480 Climbing Los Angeles Center
10:49AM 35.4253 -114.1811 73° East 490 564 43,500 480 Climbing Los Angeles Center
10:50AM 35.4700 -114.0019 73° East 488 562 44,000 360 Climbing Los Angeles Center
10:51AM 35.5078 -113.8442 74° East 483 556 44,300 240 Climbing Los Angeles Center
10:52AM 35.5472 -113.6856 73° East 487 560 44,600 240 Climbing Los Angeles Center
10:53AM 35.5858 -113.5261 73° East 487 560 44,800 180 Climbing Los Angeles Center
10:54AM 35.6253 -113.3658 73° East 487 560 45,000 60 Climbing Los Angeles Center
10:55AM 35.6619 -113.2025 75° East 481 554 45,000  Level Los Angeles Center
10:56AM 35.7003 -113.0464 73° East 483 556 45,000  Level Los Angeles Center
10:57AM 35.7453 -112.8517 74° East 488 562 45,000  Level Los Angeles Center
10:58AM 35.7831 -112.6911 74° East 488 562 45,000  Level Los Angeles Center
10:59AM 35.8189 -112.5314 74° East 487 560 45,000  Level Los Angeles Center
11:00AM 35.8558 -112.3719 74° East 487 560 45,000  Level Los Angeles Center
11:01AM 35.8925 -112.2131 74° East 486 559 45,000  Level Los Angeles Center
11:02AM 35.9286 -112.0544 74° East 484 557 45,000  Level Los Angeles Center
11:03AM 35.9689 -111.8733 75° East 483 556 45,000  Level Los Angeles Center
11:04AM 36.0044 -111.7144 74° East 482 555 45,000  Level Los Angeles Center
11:05AM 36.0392 -111.5572 75° East 481 554 45,000  Level Los Angeles Center
11:06AM 36.0744 -111.3994 74° East 480 552 45,000  Level Los Angeles Center
11:07AM 36.1089 -111.2417 75° East 477 549 45,000  Level Los Angeles Center
11:08AM 36.1639 -111.0589 70° East 477 549 45,000  Level Los Angeles Center
11:09AM 36.2175 -110.8778 70° East 475 547 45,000  Level Denver Center
11:10AM 36.2639 -110.7250 69° East 475 547 45,000  Level Denver Center
11:11AM 36.3089 -110.5719 70° East 475 547 45,000  Level Denver Center
11:13AM 36.3544 -110.4194 70° East 475 547 45,000  Level Denver Center
11:14AM 36.3989 -110.2647 70° East 475 547 45,000  Level Denver Center
11:15AM 36.4478 -110.0950 70° East 475 547 45,000  Level Denver Center
11:16AM 36.5000 -109.9203 70° East 478 550 45,000  Level Denver Center
11:17AM 36.5428 -109.7714 70° East 478 550 45,000  Level Denver Center
11:18AM 36.5922 -109.5964 71° East 478 550 45,000  Level Denver Center
11:19AM 36.6361 -109.4453 70° East 479 551 45,000  Level Denver Center
11:20AM 36.6781 -109.2961 71° East 479 551 45,000  Level Denver Center
11:21AM 36.7281 -109.1200 70° East 479 551 45,000  Level Denver Center
11:22AM 36.7700 -108.9700 71° East 479 551 45,000  Level Denver Center
11:23AM 36.8197 -108.7919 71° East 480 552 45,000  Level Denver Center
11:24AM 36.8611 -108.6394 71° East 481 554 45,000  Level Denver Center
11:25AM 36.9094 -108.4625 71° East 481 554 45,000  Level Denver Center
11:26AM 36.9514 -108.3100 71° East 481 554 45,000  Level Denver Center
11:27AM 36.9989 -108.1328 71° East 481 554 45,000  Level Denver Center
11:28AM 37.0406 -107.9794 71° East 482 555 45,000  Level Denver Center
11:29AM 37.0822 -107.8267 71° East 482 555 45,000  Level Denver Center
11:30AM 37.1297 -107.6467 72° East 483 556 45,000  Level Denver Center
11:31AM 37.1706 -107.4919 72° East 487 560 45,000  Level Denver Center
11:32AM 37.2192 -107.3100 71° East 489 563 45,000  Level Denver Center
11:33AM 37.2592 -107.1531 72° East 490 564 45,000  Level Denver Center
11:34AM 37.3064 -106.9703 72° East 491 565 45,000  Level Denver Center
11:35AM 37.3478 -106.8131 72° East 492 566 45,000  Level Denver Center
11:36AM 37.3936 -106.6275 73° East 494 568 45,000  Level Denver Center
11:37AM 37.4350 -106.4697 72° East 494 568 45,000  Level Denver Center
11:38AM 37.4825 -106.2833 72° East 498 573 45,000  Level Denver Center
11:39AM 37.5214 -106.1242 73° East 498 573 45,000  Level Denver Center
11:40AM 37.5642 -105.9461 73° East 498 573 45,000  Level Denver Center
11:42AM 37.6050 -105.7803 73° East 498 573 45,000  Level Denver Center
11:43AM 37.6456 -105.6139 73° East 497 572 45,000  Level Denver Center
11:44AM 37.6864 -105.4486 73° East 497 572 45,000  Level Denver Center
11:45AM 37.7258 -105.2828 73° East 496 571 45,000  Level Denver Center
11:46AM 37.7753 -105.0847 72° East 495 570 45,000  Level Denver Center
11:47AM 37.8133 -104.9181 74° East 494 568 45,000  Level Denver Center
11:48AM 37.8533 -104.7508 73° East 494 568 45,000  Level Denver Center
11:49AM 37.8925 -104.5831 73° East 495 570 45,000  Level Denver Center
11:50AM 37.9319 -104.4161 73° East 494 568 45,000  Level Denver Center
11:51AM 37.9719 -104.2458 73° East 497 572 45,000  Level Denver Center
11:52AM 38.0111 -104.0761 74° East 498 573 45,000  Level Denver Center
11:53AM 38.0575 -103.8728 74° East 498 573 45,000  Level Denver Center
11:54AM 38.0958 -103.7025 74° East 498 573 45,000  Level Denver Center
11:55AM 38.1347 -103.5331 74° East 498 573 45,000  Level Denver Center
11:56AM 38.1717 -103.3633 74° East 499 574 45,000  Level Denver Center
11:57AM 38.2092 -103.1928 74° East 499 574 45,000  Level Denver Center
11:58AM 38.2503 -103.0036 74° East 502 578 45,000  Level Denver Center
11:59AM 38.2858 -102.8397 75° East 502 578 45,000  Level Denver Center
12:00PM 38.3275 -102.6461 75° East 502 578 45,000  Level Denver Center
12:01PM 38.3636 -102.4797 74° East 506 582 45,000  Level Denver Center
12:02PM 38.4044 -102.2864 75° East 506 582 45,000  Level Denver Center
12:03PM 38.4392 -102.1194 75° East 506 582 45,000  Level Denver Center
12:04PM 38.4800 -101.9247 75° East 506 582 45,000  Level Denver Center
12:05PM 38.5144 -101.7561 75° East 508 585 45,000  Level Denver Center
12:06PM 38.5556 -101.5600 75° East 509 586 45,000  Level Denver Center
12:07PM 38.5894 -101.3917 76° East 509 586 45,000  Level Denver Center
12:08PM 38.6289 -101.1950 76° East 509 586 45,000  Level Denver Center
12:09PM 38.6631 -101.0261 75° East 510 587 45,000  Level Denver Center
12:10PM 38.6967 -100.8583 76° East 510 587 45,000  Level Denver Center
12:12PM 38.7344 -100.6617 76° East 509 586 45,000  Level Denver Center
12:13PM 38.7678 -100.4911 76° East 512 589 45,000  Level Denver Center
12:14PM 38.8053 -100.2933 76° East 512 589 45,000  Level Denver Center
12:15PM 38.8381 -100.1239 76° East 509 586 45,000  Level Kansas City Center
12:16PM 38.8756 -99.9264 76° East 509 586 45,000  Level Kansas City Center
12:17PM 38.9056 -99.7575 77° East 509 586 45,000  Level Kansas City Center
12:18PM 38.9428 -99.5608 76° East 509 586 45,000  Level Kansas City Center
12:19PM 38.9722 -99.4036 76° East 508 585 45,000  Level Kansas City Center
12:20PM 39.0036 -99.2272 77° East 508 585 45,000  Level Kansas City Center
12:21PM 39.0431 -99.0142 77° East 509 586 45,000  Level Kansas City Center
12:22PM 39.0761 -98.8369 76° East 509 586 45,000  Level Kansas City Center
12:23PM 39.1078 -98.6592 77° East 509 586 45,000  Level Kansas City Center
12:24PM 39.1383 -98.4822 77° East 509 586 45,000  Level Kansas City Center
12:25PM 39.1697 -98.3031 77° East 509 586 45,000  Level Kansas City Center
12:26PM 39.2003 -98.1244 77° East 509 586 45,000  Level Kansas City Center
12:27PM 39.2356 -97.9167 78° East 509 586 45,000  Level Kansas City Center
12:28PM 39.2644 -97.7453 78° East 513 590 45,000  Level Kansas City Center
12:29PM 39.2953 -97.5647 78° East 517 595 45,000  Level Kansas City Center
12:30PM 39.3256 -97.3778 78° East 510 587 45,000  Level Kansas City Center
12:31PM 39.3572 -97.1967 77° East 511 588 45,000  Level Kansas City Center
12:32PM 39.3917 -96.9792 78° East 513 590 45,000  Level Kansas City Center
12:33PM 39.4203 -96.7972 78° East 514 592 45,000  Level Kansas City Center
12:34PM 39.4503 -96.6167 78° East 514 592 45,000  Level Kansas City Center
12:35PM 39.4797 -96.4264 79° East 515 593 45,000  Level Kansas City Center
12:36PM 39.5069 -96.2444 79° East 515 593 45,000  Level Kansas City Center
12:37PM 39.5339 -96.0692 79° East 518 596 45,000  Level Kansas City Center
12:38PM 39.5678 -95.8494 79° East 517 595 45,000  Level Kansas City Center
12:39PM 39.5947 -95.6669 79° East 515 593 45,000  Level Kansas City Center
12:41PM 39.6219 -95.4831 79° East 515 593 45,000  Level Kansas City Center
12:42PM 39.6486 -95.2992 79° East 515 593 45,000  Level Kansas City Center
12:43PM 39.6764 -95.1142 79° East 516 594 45,000  Level Kansas City Center
12:44PM 39.7014 -94.9292 80° East 516 594 45,000  Level Kansas City Center
12:45PM 39.7275 -94.7464 79° East 516 594 45,000  Level Kansas City Center
12:46PM 39.7531 -94.5614 80° East 516 594 45,000  Level Kansas City Center
12:47PM 39.7831 -94.3411 80° East 516 594 45,000  Level Kansas City Center
12:48PM 39.8083 -94.1558 80° East 517 595 45,000  Level Kansas City Center
12:49PM 39.8328 -93.9650 80° East 518 596 45,000  Level Kansas City Center
12:50PM 39.8561 -93.7819 81° East 519 597 45,000  Level Kansas City Center
12:51PM 39.8806 -93.5994 80° East 519 597 45,000  Level Kansas City Center
12:52PM 39.9047 -93.4150 80° East 518 596 45,000  Level Kansas City Center
12:53PM 39.9328 -93.1961 80° East 519 597 45,000  Level Kansas City Center
12:54PM 39.9556 -93.0139 81° East 518 596 45,000  Level Kansas City Center
12:55PM 39.9786 -92.8286 81° East 520 598 45,000  Level Kansas City Center
12:56PM 40.0000 -92.6456 81° East 520 598 45,000  Level Kansas City Center
12:57PM 40.0267 -92.4264 81° East 521 600 45,000  Level Kansas City Center
12:58PM 40.0486 -92.2442 81° East 521 600 45,000  Level Kansas City Center
12:59PM 40.0703 -92.0619 81° East 519 597 45,000  Level Kansas City Center
01:00PM 40.0917 -91.8772 81° East 519 597 45,000  Level Kansas City Center
01:01PM 40.1164 -91.6547 82° East 520 598 45,000  Level Kansas City Center
01:02PM 40.1383 -91.4681 81° East 521 600 45,000  Level Kansas City Center
01:03PM 40.1575 -91.2811 82° East 522 601 45,000  Level Kansas City Center
01:04PM 40.1786 -91.0944 82° East 522 601 45,000  Level Kansas City Center
01:05PM 40.1975 -90.9067 82° East 522 601 45,000  Level Kansas City Center
01:06PM 40.2214 -90.6828 82° East 522 601 45,000  Level Kansas City Center
01:07PM 40.2422 -90.4969 82° East 522 601 45,000  Level Kansas City Center
01:08PM 40.2608 -90.3108 82° East 521 600 45,000  Level Kansas City Center
01:09PM 40.2786 -90.1272 83° East 518 596 45,000  Level Kansas City Center
01:11PM 40.2961 -89.9417 83° East 518 596 45,000  Level Kansas City Center
01:12PM 40.3164 -89.7200 83° East 518 596 45,000  Level Kansas City Center
01:13PM 40.3339 -89.5336 83° East 518 596 45,000  Level Kansas City Center
01:14PM 40.3511 -89.3478 83° East 518 596 45,000  Level Kansas City Center
01:15PM 40.3692 -89.1619 83° East 518 596 45,000  Level Kansas City Center
01:16PM 40.3864 -88.9750 83° East 518 596 45,000  Level Kansas City Center
01:17PM 40.4053 -88.7494 84° East 519 597 45,000  Level Kansas City Center
01:18PM 40.4208 -88.5617 84° East 519 597 45,000  Level Kansas City Center
01:19PM 40.4364 -88.3725 84° East 519 597 45,000  Level Kansas City Center
01:20PM 40.4567 -88.1339 84° East 521 600 45,000  Level Chicago Center
01:21PM 40.4719 -87.9456 84° East 521 600 45,000  Level Chicago Center
01:22PM 40.4869 -87.7578 84° East 521 600 45,000  Level Chicago Center
01:23PM 40.5047 -87.5319 84° East 522 601 45,000  Level Chicago Center
01:24PM 40.5178 -87.3472 85° East 516 594 45,000  Level Chicago Center
01:25PM 40.5328 -87.1600 84° East 516 594 45,000  Level Chicago Center
01:26PM 40.5472 -86.9536 85° East 519 597 45,000  Level Chicago Center
01:27PM 40.5606 -86.7639 85° East 520 598 45,000  Level Chicago Center
01:28PM 40.5733 -86.5739 85° East 520 598 45,000  Level Chicago Center
01:29PM 40.5867 -86.3869 85° East 517 595 45,000  Level Chicago Center
01:30PM 40.5983 -86.1958 85° East 518 596 45,000  Level Chicago Center
01:31PM 40.6106 -86.0081 85° East 517 595 45,000  Level Chicago Center
01:32PM 40.6217 -85.8203 85° East 515 593 45,000  Level Chicago Center
01:33PM 40.6356 -85.5953 85° East 515 593 45,000  Level Chicago Center
01:35PM 40.6458 -85.4078 86° East 514 592 45,000  Level Chicago Center
01:36PM 40.6564 -85.2178 86° East 517 595 45,000  Level Chicago Center
01:37PM 40.6667 -85.0128 86° East 525 604 45,000  Level Chicago Center
01:38PM 40.6833 -84.6978 86° East 517 595 45,000  Level Cleveland Center
01:39PM 40.6919 -84.5086 87° East 517 595 45,000  Level Cleveland Center
01:40PM 40.7019 -84.3189 86° East 517 595 45,000  Level Cleveland Center
01:41PM 40.7125 -84.0911 86° East 517 595 45,000  Level Cleveland Center
01:42PM 40.7217 -83.9003 86° East 518 596 45,000  Level Cleveland Center
01:44PM 40.7294 -83.7103 87° East 518 596 45,000  Level Cleveland Center
01:45PM 40.7367 -83.5225 87° East 514 592 45,000  Level Cleveland Center
01:46PM 40.7442 -83.3314 87° East 518 596 45,000  Level Cleveland Center
01:47PM 40.7519 -83.1417 87° East 518 596 45,000  Level Cleveland Center
01:48PM 40.7583 -82.9522 87° East 517 595 45,000  Level Cleveland Center
01:49PM 40.7653 -82.7533 87° East 516 594 45,000  Level Cleveland Center
01:51PM 40.7783 -82.3378 87° East 519 597 45,000  Level Cleveland Center
01:52PM 40.7842 -82.1486 88° East 519 597 45,000  Level Cleveland Center
01:53PM 40.7892 -81.9567 88° East 519 597 45,000  Level Cleveland Center
01:54PM 40.7944 -81.7669 88° East 519 597 45,000  Level Cleveland Center
01:55PM 40.7994 -81.5778 88° East 519 597 45,000  Level Cleveland Center
01:56PM 40.8042 -81.3561 88° East 519 597 45,000  Level Cleveland Center
01:57PM 40.8083 -81.1669 88° East 517 595 45,000  Level Cleveland Center
01:58PM 40.8117 -80.9917 89° East 514 592 45,000  Level Cleveland Center
01:59PM 40.8150 -80.8025 89° East 513 590 45,000  Level Cleveland Center
02:00PM 40.8181 -80.5983 89° East 517 595 45,000  Level Cleveland Center
02:01PM 40.8200 -80.4078 89° East 517 595 45,000  Level Cleveland Center
02:02PM 40.8275 -80.1942 87° East 517 595 45,000  Level Cleveland Center
02:03PM 40.8711 -80.0131 72° East 510 587 45,000  Level Cleveland Center
02:04PM 40.9136 -79.8339 73° East 508 585 45,000  Level Cleveland Center
02:05PM 40.9556 -79.6539 73° East 507 583 45,000  Level Cleveland Center
02:06PM 40.9961 -79.4750 73° East 507 583 45,000  Level Cleveland Center
02:07PM 41.0372 -79.2975 73° East 502 578 45,000  Level Cleveland Center
02:08PM 41.0864 -79.0819 73° East 507 583 45,000  Level Cleveland Center
02:09PM 41.1258 -78.9028 74° East 505 581 45,000  Level Cleveland Center
02:10PM 41.1667 -78.7256 73° East 503 579 45,000  Level Cleveland Center
02:11PM 41.2069 -78.5433 74° East 512 589 45,000  Level Cleveland Center
02:12PM 41.2453 -78.3614 74° East 516 594 45,000  Level Cleveland Center
02:13PM 41.2833 -78.1831 74° East 512 589 45,000  Level Cleveland Center
02:14PM 41.3294 -77.9672 74° East 511 588 45,000  Level Cleveland Center
02:15PM 41.3678 -77.7869 74° East 510 587 45,000  Level Cleveland Center
02:17PM 41.4056 -77.6072 74° East 509 586 45,000  Level Cleveland Center
02:18PM 41.4422 -77.4269 75° East 509 586 45,000  Level Cleveland Center
02:19PM 41.4800 -77.2483 74° East 506 582 45,000  Level Cleveland Center
02:20PM 41.5181 -77.0672 74° East 507 583 45,000  Level Cleveland Center
02:21PM 41.5619 -76.8489 75° East 510 587 45,000  Level Cleveland Center
02:22PM 41.5981 -76.6658 75° East 510 587 45,000  Level Cleveland Center
02:23PM 41.6317 -76.4975 75° East 511 588 45,000  Level Cleveland Center
02:24PM 41.6858 -76.2856 71° East 506 582 45,000  Level Cleveland Center
02:25PM 41.7517 -76.1203 62° Northeast 506 582 45,000 -600 Level Cleveland Center
02:26PM 41.8528 -75.8633 62° Northeast 502 578 43,500 -1,140 Descending Boston Center
02:27PM 41.9169 -75.6978 62° Northeast 500 575 42,000 -1,500 Descending Boston Center
02:28PM 41.9825 -75.5264 63° Northeast 510 587 40,500 -1,620 Descending Boston Center
02:30PM 42.0594 -75.3208 63° Northeast 512 589 38,700 -1,500 Descending Boston Center
02:31PM 42.0806 -75.1703 79° East 511 588 37,500 -1,440 Descending Boston Center
02:32PM 42.1019 -74.9569 82° East 513 590 35,800 -1,680 Descending Boston Center
02:33PM 42.1203 -74.7669 83° East 514 592 34,200 -2,040 Descending Boston Center
02:34PM 42.1389 -74.5739 83° East 516 594 31,700 -3,000 Descending Boston Center
02:35PM 42.1603 -74.3417 83° East 521 600 28,100 -3,060 Descending Boston Center
02:36PM 42.1803 -74.1478 82° East 525 604 25,500 -1,980 Descending Boston Center
02:37PM 42.1975 -73.9589 83° East 516 594 24,000 -840 Descending Boston Center
02:39PM 42.2308 -73.5817 83° East 501 577 23,000 -840 Descending Boston Center
02:40PM 42.2472 -73.3978 83° East 498 573 21,500 -1,440 Descending Boston Center
02:41PM 42.2614 -73.2275 84° East 493 567 20,100 -1,260 Descending Boston Center
02:42PM 42.1983 -73.0344 114° Southeast 471 542 19,000 -600 Descending Boston Center
02:43PM 42.1069 -72.9100 135° Southeast 470 541 19,000  Level Boston Center
02:44PM 42.0158 -72.7875 135° Southeast 466 536 19,000  Level Boston Center
02:45PM 41.9306 -72.6708 134° Southeast 464 534 19,000 -1,140 Level Boston Center
02:46PM 41.8442 -72.5117 126° Southeast 448 516 16,800 -2,220 Descending Boston Center
02:47PM 41.7733 -72.3844 127° Southeast 430 495 14,500 -2,280 Descending Boston Center
02:48PM 41.7064 -72.2661 127° Southeast 411 473 12,400 -1,740 Descending Boston Center
02:49PM 41.6358 -72.1408 127° Southeast 399 459 11,000 -780 Descending Boston Center
02:50PM 41.5772 -72.0383 127° Southeast 354 407 10,900 -900 Descending Boston Center
02:51PM 41.5322 -71.9275 118° Southeast 313 360 9,200 -1,620 Descending Boston Center
02:52PM 41.5025 -71.8375 114° Southeast 289 333 7,700 -1,500 Descending Boston Center
02:53PM 41.4689 -71.7389 114° Southeast 300 345 6,400 -1,380 Descending Boston Center
02:54PM 41.4347 -71.6431 115° Southeast 285 328 5,000 -720 Descending Boston Center
02:55PM 41.4158 -71.5469 105° East 241 277 5,000  Level Boston Center
02:56PM 41.4594 -71.4600 56° Northeast 255 293 5,000  Level Boston Center
02:57PM 41.4850 -71.3756 68° East 249 287 5,000 -120 Level Boston Center
02:58PM 41.4972 -71.2981 78° East 255 293 4,800 -720 Descending Boston Center
02:59PM 41.5189 -71.2025 73° East 250 288 3,700 -900 Descending Boston Center
03:00PM 41.5689 -71.1369 44° Northeast 224 258 3,000 -660 Descending Boston Center
03:01PM 41.6181 -71.0856 38° Northeast 214 246 2,300 -720 Descending Boston Center
03:02PM 41.6711 -71.0472 28° Northeast 216 249 1,600 -600 Descending Boston Center
03:03PM 41.7031 -71.0067 43° Northeast 156 180 1,100 -600 Descending Boston Center
03:04PM 41.6775 -70.9594 126° Southeast 142 163 300 -720 Descending Boston Center
03:06PM 41.6766 -70.9578 66° East  Level Estimated
03:13PM 41.6766 -70.9578 66° East  Level Estimated
03:14PM 41.6766 -70.9578 66° East  Level Estimated